DLH9ED LHBP-EDDP

Flight info

Callsign DLH9ED
Flight time 1h 20m
Altitude 34000
Route BADOV DCT MAVOR DCT KATQA DCT ODLIV DCT LEGAZ DCT BEFRE DCT IVQOQ T951 YAWOY YAWOY1R
Aircraft A35K/H-SDE2E3GHIJ3J4J5LM1ORWXY/LB1D1

Departure

Time 2026-05-07 14:33
Airport Budapest Liszt Ferenc International Airport (LHBP)

Arrival

Time 2026-05-07 15:53
Airport Leipzig/Halle Airport (EDDP)
Time Latitude Longitude Altitude Speed Heading
2026-05-07 13:58 47.43188 19.25856 463 ft 0 kts 43°
2026-05-07 14:21 47.43174 19.25838 460 ft 4 kts 43°
2026-05-07 14:21 47.43154 19.25811 459 ft 4 kts 42°
2026-05-07 14:22 47.43137 19.25790 458 ft 4 kts 12°
2026-05-07 14:22 47.43116 19.25798 458 ft 4 kts 313°
2026-05-07 14:22 47.43102 19.25821 459 ft 0 kts 312°
2026-05-07 14:29 47.43110 19.25808 463 ft 4 kts 312°
2026-05-07 14:29 47.43136 19.25767 463 ft 7 kts 312°
2026-05-07 14:30 47.43177 19.25699 463 ft 10 kts 312°
2026-05-07 14:30 47.43233 19.25608 463 ft 13 kts 313°
2026-05-07 14:30 47.43304 19.25496 463 ft 14 kts 313°
2026-05-07 14:30 47.43334 19.25444 463 ft 8 kts 301°
2026-05-07 14:31 47.43319 19.25361 463 ft 12 kts 232°
2026-05-07 14:31 47.43229 19.25231 463 ft 24 kts 221°
2026-05-07 14:31 47.43117 19.25083 463 ft 5 kts 221°
2026-05-07 14:31 47.43082 19.25035 463 ft 9 kts 228°
2026-05-07 14:32 47.43092 19.24961 463 ft 9 kts 305°
2026-05-07 14:32 47.43102 19.24942 463 ft 2 kts 307°
2026-05-07 14:32 47.43141 19.24872 462 ft 27 kts 310°
2026-05-07 14:32 47.43463 19.24345 457 ft 119 kts 312°
2026-05-07 14:33 47.44204 19.23115 769 ft 181 kts 308°
2026-05-07 14:33 47.45029 19.21668 1909 ft 194 kts 304°
2026-05-07 14:33 47.45866 19.19999 3117 ft 205 kts 301°
2026-05-07 14:33 47.46655 19.18327 4214 ft 192 kts 304°
2026-05-07 14:34 47.47663 19.17139 5251 ft 182 kts 330°
2026-05-07 14:34 47.48857 19.16672 6063 ft 175 kts 343°
2026-05-07 14:34 47.49968 19.15944 6557 ft 181 kts 323°
2026-05-07 14:34 47.51084 19.14984 7064 ft 188 kts 322°
2026-05-07 14:35 47.52205 19.13955 7738 ft 191 kts 320°
2026-05-07 14:35 47.53319 19.12872 8448 ft 193 kts 319°
2026-05-07 14:35 47.54408 19.11755 9191 ft 194 kts 317°
2026-05-07 14:35 47.55506 19.10567 9877 ft 197 kts 315°
2026-05-07 14:36 47.56599 19.09317 10508 ft 200 kts 313°
2026-05-07 14:36 47.57682 19.08013 11145 ft 202 kts 311°
2026-05-07 14:36 47.58756 19.06650 11792 ft 204 kts 310°
2026-05-07 14:36 47.59698 19.05109 12401 ft 199 kts 288°
2026-05-07 14:37 47.60394 19.03311 13042 ft 204 kts 293°
2026-05-07 14:37 47.62262 19.00017 14284 ft 220 kts 313°
2026-05-07 14:37 47.63598 18.98824 14878 ft 231 kts 332°
2026-05-07 14:38 47.65174 18.98238 15539 ft 237 kts 350°
2026-05-07 14:38 47.66830 18.98331 16185 ft 242 kts
2026-05-07 14:38 47.68440 18.99108 16799 ft 245 kts 25°
2026-05-07 14:38 47.69862 19.00517 17361 ft 247 kts 43°
2026-05-07 14:39 47.70989 19.02427 17973 ft 246 kts 56°
2026-05-07 14:39 47.72039 19.04457 18543 ft 250 kts 52°
2026-05-07 14:39 47.73206 19.06358 19031 ft 255 kts 46°
2026-05-07 14:39 47.74492 19.08220 19506 ft 261 kts 43°
2026-05-07 14:40 47.75943 19.09869 20045 ft 264 kts 30°
2026-05-07 14:40 47.77617 19.11010 20576 ft 267 kts 14°
2026-05-07 14:40 47.79444 19.11521 21076 ft 268 kts 358°
2026-05-07 14:40 47.81302 19.11359 21586 ft 267 kts 342°
2026-05-07 14:41 47.83058 19.10557 22098 ft 263 kts 327°
2026-05-07 14:41 47.84619 19.09189 22607 ft 258 kts 313°
2026-05-07 14:41 47.85916 19.07421 23084 ft 256 kts 304°
2026-05-07 14:41 47.87133 19.05479 23555 ft 258 kts 303°
2026-05-07 14:42 47.88352 19.03502 23974 ft 260 kts 303°
2026-05-07 14:42 47.89582 19.01517 24365 ft 262 kts 303°
2026-05-07 14:42 47.90824 18.99522 24779 ft 263 kts 302°
2026-05-07 14:42 47.92075 18.97519 25209 ft 265 kts 302°
2026-05-07 14:43 47.93338 18.95497 25640 ft 267 kts 302°
2026-05-07 14:43 47.94608 18.93466 26019 ft 269 kts 302°
2026-05-07 14:43 47.95892 18.91408 26381 ft 272 kts 302°
2026-05-07 14:43 47.97172 18.89359 26747 ft 274 kts 302°
2026-05-07 14:44 47.98475 18.87275 27106 ft 276 kts 302°
2026-05-07 14:44 47.99785 18.85177 27471 ft 277 kts 301°
2026-05-07 14:44 48.01103 18.83063 27830 ft 279 kts 301°
2026-05-07 14:44 48.02433 18.80929 28177 ft 281 kts 301°
2026-05-07 14:45 48.03774 18.78795 28500 ft 283 kts 301°
2026-05-07 14:45 48.05134 18.76639 28823 ft 285 kts 301°
2026-05-07 14:45 48.06503 18.74478 29132 ft 287 kts 302°
2026-05-07 14:45 48.07867 18.72335 29426 ft 289 kts 301°
2026-05-07 14:46 48.09276 18.70126 29719 ft 291 kts 301°
2026-05-07 14:46 48.10661 18.67957 30003 ft 293 kts 301°
2026-05-07 14:46 48.12073 18.65745 30248 ft 295 kts 301°
2026-05-07 14:46 48.13495 18.63513 30459 ft 299 kts 301°
2026-05-07 14:47 48.14938 18.61242 30652 ft 302 kts 301°
2026-05-07 14:47 48.16389 18.58961 30908 ft 303 kts 301°
2026-05-07 14:47 48.17847 18.56671 31139 ft 305 kts 301°
2026-05-07 14:47 48.19312 18.54366 31364 ft 306 kts 301°
2026-05-07 14:48 48.20784 18.52049 31586 ft 308 kts 301°
2026-05-07 14:48 48.22249 18.49738 31816 ft 310 kts 301°
2026-05-07 14:48 48.23735 18.47392 32012 ft 312 kts 301°
2026-05-07 14:48 48.25233 18.45025 32227 ft 314 kts 301°
2026-05-07 14:49 48.26740 18.42639 32413 ft 316 kts 301°
2026-05-07 14:49 48.28258 18.40233 32605 ft 318 kts 301°
2026-05-07 14:49 48.29783 18.37815 32829 ft 320 kts 301°
2026-05-07 14:49 48.31319 18.35381 33033 ft 322 kts 301°
2026-05-07 14:50 48.32860 18.32935 33264 ft 324 kts 301°
2026-05-07 14:50 48.34423 18.30443 33309 ft 330 kts 301°
2026-05-07 14:50 48.35986 18.27949 33472 ft 333 kts 301°
2026-05-07 14:50 48.37576 18.25419 33741 ft 333 kts 301°
2026-05-07 14:51 48.39173 18.22879 33937 ft 335 kts 301°
2026-05-07 14:51 48.40787 18.20296 33980 ft 343 kts 301°
2026-05-07 14:51 48.44129 18.14912 33974 ft 361 kts 301°
2026-05-07 14:52 48.47651 18.09224 33973 ft 381 kts 302°
2026-05-07 14:52 48.51366 18.03231 33969 ft 402 kts 302°
2026-05-07 14:53 48.53274 18.00150 33986 ft 413 kts 303°
2026-05-07 14:53 48.55261 17.96944 33978 ft 424 kts 303°
2026-05-07 14:53 48.57297 17.93653 33974 ft 435 kts 303°
2026-05-07 14:53 48.59390 17.90267 33970 ft 446 kts 304°
2026-05-07 14:54 48.61530 17.86798 33971 ft 457 kts 304°
2026-05-07 14:54 48.63723 17.83238 33970 ft 468 kts 304°
2026-05-07 14:54 48.65967 17.79590 33959 ft 479 kts 304°
2026-05-07 14:54 48.68256 17.75864 33959 ft 489 kts 304°
2026-05-07 14:55 48.72944 17.68227 33971 ft 508 kts 305°
2026-05-07 14:55 48.77820 17.60289 33955 ft 519 kts 306°
2026-05-07 14:56 48.82768 17.52241 33958 ft 522 kts 306°
2026-05-07 14:56 48.87944 17.44398 33964 ft 526 kts 309°
2026-05-07 14:57 48.93241 17.36714 33964 ft 527 kts 309°
2026-05-07 14:57 48.98512 17.28968 33965 ft 526 kts 308°
2026-05-07 14:58 49.03713 17.21199 33960 ft 526 kts 308°
2026-05-07 14:58 49.08835 17.13251 33951 ft 525 kts 307°
2026-05-07 14:59 49.13921 17.05246 33945 ft 525 kts 307°
2026-05-07 14:59 49.19017 16.97234 33938 ft 526 kts 307°
2026-05-07 15:00 49.24128 16.89206 33939 ft 526 kts 307°
2026-05-07 15:00 49.29201 16.81228 33938 ft 526 kts 307°
2026-05-07 15:01 49.34301 16.73183 33935 ft 526 kts 307°
2026-05-07 15:01 49.39393 16.65123 33929 ft 518 kts 308°
2026-05-07 15:02 49.41851 16.61243 33933 ft 497 kts 307°
2026-05-07 15:02 49.44216 16.57504 33934 ft 480 kts 307°
2026-05-07 15:02 49.46497 16.53886 33931 ft 463 kts 306°
2026-05-07 15:02 49.48666 16.50444 33932 ft 446 kts 306°
2026-05-07 15:03 49.50788 16.47076 33930 ft 430 kts 306°
2026-05-07 15:03 49.52825 16.43843 33930 ft 413 kts 306°
2026-05-07 15:03 49.54789 16.40725 33930 ft 397 kts 305°
2026-05-07 15:03 49.56677 16.37726 33928 ft 382 kts 305°
2026-05-07 15:04 49.60180 16.31820 33940 ft 367 kts 298°
2026-05-07 15:04 49.63200 16.25547 33939 ft 367 kts 297°
2026-05-07 15:05 49.66230 16.19187 33944 ft 368 kts 297°
2026-05-07 15:05 49.69257 16.12832 33943 ft 367 kts 297°
2026-05-07 15:06 49.72280 16.06475 33945 ft 367 kts 297°
2026-05-07 15:06 49.75284 16.00143 33945 ft 367 kts 297°
2026-05-07 15:07 49.78308 15.93763 33946 ft 369 kts 297°
2026-05-07 15:07 49.81339 15.87339 33950 ft 370 kts 297°
2026-05-07 15:08 49.84367 15.80911 33947 ft 370 kts 297°
2026-05-07 15:08 49.87393 15.74472 33952 ft 370 kts 297°
2026-05-07 15:09 49.90396 15.68066 33951 ft 370 kts 297°
2026-05-07 15:09 49.93413 15.61613 33961 ft 369 kts 298°
2026-05-07 15:10 49.96419 15.55174 33954 ft 367 kts 298°
2026-05-07 15:10 49.99409 15.48749 33955 ft 367 kts 298°
2026-05-07 15:11 50.02390 15.42330 33960 ft 366 kts 298°
2026-05-07 15:11 50.05349 15.35941 33959 ft 366 kts 298°
2026-05-07 15:12 50.08320 15.29509 33955 ft 366 kts 298°
2026-05-07 15:12 50.11290 15.23064 33966 ft 365 kts 299°
2026-05-07 15:13 50.14246 15.16637 33960 ft 364 kts 299°
2026-05-07 15:13 50.17174 15.10255 33955 ft 364 kts 299°
2026-05-07 15:14 50.20112 15.03832 33958 ft 364 kts 299°
2026-05-07 15:14 50.23051 14.97394 33961 ft 364 kts 299°
2026-05-07 15:15 50.25982 14.90959 33962 ft 364 kts 299°
2026-05-07 15:15 50.28892 14.84553 33970 ft 363 kts 300°
2026-05-07 15:16 50.31814 14.78103 33964 ft 363 kts 300°
2026-05-07 15:16 50.34731 14.71650 33966 ft 363 kts 300°
2026-05-07 15:17 50.37648 14.65180 33967 ft 363 kts 300°
2026-05-07 15:17 50.40555 14.58719 33966 ft 363 kts 300°
2026-05-07 15:18 50.43465 14.52235 33969 ft 364 kts 299°
2026-05-07 15:18 50.46375 14.45731 33967 ft 363 kts 300°
2026-05-07 15:19 50.49241 14.39313 33973 ft 361 kts 300°
2026-05-07 15:19 50.52120 14.32850 33973 ft 361 kts 300°
2026-05-07 15:20 50.54992 14.26384 33973 ft 361 kts 300°
2026-05-07 15:20 50.57858 14.19918 33979 ft 360 kts 300°
2026-05-07 15:21 50.60685 14.13534 33704 ft 346 kts 300°
2026-05-07 15:21 50.62042 14.10476 33518 ft 335 kts 300°
2026-05-07 15:21 50.63333 14.07559 33372 ft 324 kts 300°
2026-05-07 15:22 50.64608 14.04671 33208 ft 319 kts 300°
2026-05-07 15:22 50.65868 14.01809 33090 ft 317 kts 300°
2026-05-07 15:22 50.67116 13.98968 32614 ft 315 kts 301°
2026-05-07 15:22 50.68368 13.96117 32206 ft 317 kts 301°
2026-05-07 15:23 50.69613 13.93277 32067 ft 312 kts 301°
2026-05-07 15:23 50.70845 13.90462 31645 ft 311 kts 301°
2026-05-07 15:23 50.72070 13.87661 31233 ft 309 kts 301°
2026-05-07 15:23 50.73286 13.84879 30812 ft 307 kts 301°
2026-05-07 15:24 50.74494 13.82112 30440 ft 305 kts 301°
2026-05-07 15:24 50.75696 13.79345 30120 ft 305 kts 301°
2026-05-07 15:24 50.76878 13.76592 29835 ft 303 kts 301°
2026-05-07 15:24 50.78065 13.73862 29449 ft 307 kts 301°
2026-05-07 15:25 50.79282 13.71079 29120 ft 308 kts 301°
2026-05-07 15:25 50.80501 13.68294 28828 ft 308 kts 301°
2026-05-07 15:25 50.81708 13.65505 28636 ft 307 kts 301°
2026-05-07 15:25 50.82915 13.62721 28415 ft 306 kts 301°
2026-05-07 15:26 50.84126 13.59948 28092 ft 305 kts 302°
2026-05-07 15:26 50.85312 13.57210 27790 ft 299 kts 301°
2026-05-07 15:26 50.86479 13.54499 27373 ft 298 kts 301°
2026-05-07 15:26 50.87647 13.51786 26949 ft 297 kts 301°
2026-05-07 15:27 50.88808 13.49088 26556 ft 296 kts 301°
2026-05-07 15:27 50.89975 13.46375 26385 ft 299 kts 301°
2026-05-07 15:27 50.91118 13.43709 26284 ft 292 kts 300°
2026-05-07 15:27 50.92256 13.41054 25868 ft 292 kts 301°
2026-05-07 15:28 50.93405 13.38380 25412 ft 294 kts 300°
2026-05-07 15:28 50.94553 13.35706 25041 ft 293 kts 300°
2026-05-07 15:28 50.95694 13.33045 24688 ft 291 kts 300°
2026-05-07 15:28 50.96828 13.30395 24382 ft 289 kts 302°
2026-05-07 15:29 50.97938 13.27795 24207 ft 282 kts 303°
2026-05-07 15:29 50.99030 13.25242 24005 ft 278 kts 303°
2026-05-07 15:29 51.00113 13.22706 23640 ft 277 kts 302°
2026-05-07 15:29 51.01195 13.20170 23177 ft 277 kts 302°
2026-05-07 15:30 51.02261 13.17669 22768 ft 276 kts 302°
2026-05-07 15:30 51.03334 13.15147 22387 ft 275 kts 302°
2026-05-07 15:30 51.04402 13.12635 22092 ft 274 kts 302°
2026-05-07 15:30 51.05466 13.10129 21772 ft 273 kts 301°
2026-05-07 15:31 51.06523 13.07637 21479 ft 271 kts 301°
2026-05-07 15:31 51.07575 13.05154 21203 ft 270 kts 301°
2026-05-07 15:31 51.08623 13.02682 21006 ft 268 kts 300°
2026-05-07 15:31 51.09660 13.00233 20823 ft 265 kts 300°
2026-05-07 15:32 51.10682 12.97813 20479 ft 263 kts 300°
2026-05-07 15:32 51.11702 12.95397 20113 ft 263 kts 300°
2026-05-07 15:32 51.12721 12.92979 19833 ft 262 kts 300°
2026-05-07 15:32 51.13732 12.90579 19551 ft 260 kts 300°
2026-05-07 15:33 51.14730 12.88208 19270 ft 256 kts 300°
2026-05-07 15:33 51.15708 12.85883 18909 ft 255 kts 300°
2026-05-07 15:33 51.16683 12.83519 18487 ft 256 kts 298°
2026-05-07 15:33 51.17509 12.81027 18070 ft 253 kts 290°
2026-05-07 15:34 51.18200 12.78469 17729 ft 249 kts 288°
2026-05-07 15:34 51.18863 12.75928 17422 ft 247 kts 288°
2026-05-07 15:34 51.19522 12.73404 17123 ft 246 kts 288°
2026-05-07 15:34 51.20177 12.70897 16798 ft 244 kts 288°
2026-05-07 15:35 51.20830 12.68400 16496 ft 243 kts 288°
2026-05-07 15:35 51.21478 12.65920 16190 ft 242 kts 288°
2026-05-07 15:35 51.22124 12.63451 15872 ft 240 kts 288°
2026-05-07 15:35 51.22765 12.60995 15574 ft 239 kts 288°
2026-05-07 15:36 51.23402 12.58555 15273 ft 238 kts 288°
2026-05-07 15:36 51.24027 12.56157 14975 ft 236 kts 288°
2026-05-07 15:36 51.24656 12.53743 14666 ft 235 kts 288°
2026-05-07 15:36 51.25239 12.51324 14372 ft 233 kts 284°
2026-05-07 15:37 51.25577 12.48824 14070 ft 229 kts 272°
2026-05-07 15:37 51.25589 12.46301 13764 ft 227 kts 265°
2026-05-07 15:37 51.25477 12.43783 13440 ft 228 kts 264°
2026-05-07 15:37 51.25354 12.41261 13148 ft 227 kts 264°
2026-05-07 15:38 51.25233 12.38749 12854 ft 226 kts 265°
2026-05-07 15:38 51.25117 12.36250 12543 ft 225 kts 265°
2026-05-07 15:38 51.25001 12.33760 12252 ft 224 kts 265°
2026-05-07 15:38 51.24885 12.31278 11952 ft 223 kts 265°
2026-05-07 15:39 51.24772 12.28848 11659 ft 222 kts 265°
2026-05-07 15:39 51.24761 12.26386 11365 ft 222 kts 274°
2026-05-07 15:39 51.25019 12.23969 11153 ft 220 kts 282°
2026-05-07 15:39 51.25393 12.21600 11021 ft 220 kts 283°
2026-05-07 15:40 51.25777 12.19245 10891 ft 219 kts 283°
2026-05-07 15:40 51.26160 12.16890 10779 ft 220 kts 283°
2026-05-07 15:40 51.26541 12.14529 10663 ft 219 kts 283°
2026-05-07 15:40 51.26918 12.12181 10536 ft 218 kts 283°
2026-05-07 15:41 51.27293 12.09845 10417 ft 217 kts 283°
2026-05-07 15:41 51.27666 12.07506 10240 ft 217 kts 283°
2026-05-07 15:41 51.28037 12.05185 10009 ft 216 kts 283°
2026-05-07 15:41 51.28369 12.02875 9756 ft 217 kts 279°
2026-05-07 15:42 51.28442 12.00478 9501 ft 216 kts 266°
2026-05-07 15:42 51.28337 11.98068 9247 ft 219 kts 265°
2026-05-07 15:42 51.28209 11.95643 9003 ft 219 kts 265°
2026-05-07 15:42 51.28083 11.93215 8743 ft 219 kts 265°
2026-05-07 15:43 51.27959 11.90793 8497 ft 218 kts 265°
2026-05-07 15:43 51.27835 11.88384 8248 ft 216 kts 265°
2026-05-07 15:43 51.27714 11.86000 7989 ft 215 kts 265°
2026-05-07 15:43 51.27595 11.83623 7756 ft 214 kts 265°
2026-05-07 15:44 51.27475 11.81259 7510 ft 213 kts 265°
2026-05-07 15:44 51.27358 11.78936 7269 ft 212 kts 266°
2026-05-07 15:44 51.27245 11.76604 7024 ft 210 kts 266°
2026-05-07 15:44 51.27301 11.74280 6784 ft 209 kts 280°
2026-05-07 15:45 51.27777 11.72105 6554 ft 207 kts 298°
2026-05-07 15:45 51.28664 11.70321 6303 ft 205 kts 317°
2026-05-07 15:45 51.29593 11.69304 6132 ft 205 kts 331°
2026-05-07 15:45 51.30945 11.68618 5901 ft 204 kts 349°
2026-05-07 15:46 51.33709 11.69448 5444 ft 208 kts 26°
2026-05-07 15:46 51.34829 11.70891 5174 ft 208 kts 45°
2026-05-07 15:46 51.35593 11.72852 4944 ft 208 kts 64°
2026-05-07 15:47 51.35916 11.75069 4696 ft 209 kts 83°
2026-05-07 15:47 51.35807 11.77378 4571 ft 209 kts 95°
2026-05-07 15:47 51.35646 11.79675 4472 ft 206 kts 89°
2026-05-07 15:47 51.35801 11.81920 4385 ft 202 kts 69°
2026-05-07 15:48 51.36422 11.83902 4299 ft 199 kts 49°
2026-05-07 15:48 51.37349 11.85533 4197 ft 198 kts 41°
2026-05-07 15:48 51.38341 11.87059 4107 ft 198 kts 40°
2026-05-07 15:48 51.39262 11.88682 4017 ft 199 kts 54°
2026-05-07 15:49 51.39751 11.90758 3871 ft 201 kts 76°
2026-05-07 15:49 51.39883 11.92950 3629 ft 198 kts 83°
2026-05-07 15:49 51.39968 11.95097 3479 ft 188 kts 82°
2026-05-07 15:49 51.40070 11.97131 3275 ft 180 kts 81°
2026-05-07 15:50 51.40173 11.99107 3038 ft 176 kts 81°
2026-05-07 15:50 51.40268 12.01062 2886 ft 175 kts 82°
2026-05-07 15:50 51.40346 12.02971 2661 ft 169 kts 82°
2026-05-07 15:50 51.40430 12.04814 2424 ft 163 kts 81°
2026-05-07 15:51 51.40487 12.05991 2278 ft 158 kts 81°
2026-05-07 15:51 51.40569 12.07724 2070 ft 153 kts 81°
2026-05-07 15:51 51.40645 12.09372 1860 ft 145 kts 81°
2026-05-07 15:51 51.40720 12.10975 1664 ft 141 kts 81°
2026-05-07 15:52 51.40791 12.12523 1466 ft 138 kts 81°
2026-05-07 15:52 51.40886 12.14549 1210 ft 138 kts 80°
2026-05-07 15:52 51.40946 12.15579 1035 ft 138 kts 79°
2026-05-07 15:52 51.41049 12.17084 867 ft 134 kts 82°
2026-05-07 15:53 51.41088 12.18608 753 ft 139 kts 85°
2026-05-07 15:53 51.41146 12.20136 541 ft 135 kts 82°
2026-05-07 15:53 51.41223 12.21628 461 ft 125 kts 84°
2026-05-07 15:53 51.41266 12.22600 469 ft 44 kts 85°
2026-05-07 15:54 51.41272 12.22724 469 ft 2 kts 86°
2026-05-07 15:54 51.41271 12.22757 471 ft 4 kts 97°
2026-05-07 15:54 51.41269 12.22825 472 ft 7 kts 89°
2026-05-07 15:54 51.41273 12.22925 470 ft 11 kts 85°
2026-05-07 15:55 51.41281 12.23055 471 ft 13 kts 84°
2026-05-07 15:55 51.41291 12.23180 469 ft 11 kts 77°
2026-05-07 15:55 51.41356 12.23249 472 ft 14 kts
2026-05-07 15:55 51.41473 12.23237 470 ft 19 kts 355°
2026-05-07 15:56 51.41577 12.23217 469 ft 13 kts 339°
2026-05-07 15:56 51.41624 12.23087 447 ft 16 kts 285°
2026-05-07 15:56 51.41656 12.22899 469 ft 19 kts 285°
2026-05-07 15:56 51.41695 12.22674 468 ft 23 kts 285°
2026-05-07 15:57 51.41742 12.22400 463 ft 28 kts 285°
2026-05-07 15:57 51.41765 12.22264 459 ft 6 kts 286°
2026-05-07 15:57 51.41805 12.22214 457 ft 9 kts